sat.trackr.live / text

‹ back to catalog

STARLINK-34850

NORAD 65460 · 2025-195C

PAYLOAD ACTIVE UNKNOWN

§ Identity

Operator
Country
US
Launch date
2025-09-03
Launch site
AFETR
Launch vehicle
Mass (kg)
RCS (m²)

Purposes: comms

External: N2YO · Heavens-Above · Gunter

§ Orbital elements

Epoch: 2026-05-24T19:45:55.120032Z

Period
93.85 min
Inclination
53.1594°
Eccentricity
0.0001433
Mean motion
15.34367742 rev/d
Perigee alt
461.8 km
Apogee alt
463.8 km
Semi-major
6,840.9 km
B*
7.3443e-4
RAAN
264.2987°
Arg perigee
59.9197°
Mean anomaly
300.1947°
Rev number
4,165

§ Raw data

STARLINK-348501 65460U 25195C   26144.82355463  .00024493  00000+0  73443-3 0  99912 65460  53.1594 264.2987 0001433  59.9197 300.1947 15.34367742 41651

JSON: /api/v1/satellites/65460 · /tle

For live sub-satellite position, see the globe view (requires WebGL).

§ Visibility from observer

Set your observer location to see the next 7 days of passes ≥ 10°. The values pass through the URL so the page stays shareable.

No JS? Fill the form by hand. The geolocation button needs JavaScript.